Location: Madden
(51.3728°N, 114.3297°W)
Time: 15:02:26
(UTC+00:00)

Envisat - Pass Details

Date: 17 June 2023
Orbit: 763 x 764 km, 98.2° (Epoch: 26 September)

Event Time Altitude Azimuth Distance (km) Brightness Sun altitude
Rises 10:20:47 0° 25° (NNE) 3,242 8.3 -7.2°
Reaches altitude 10° 10:23:42 10° 42° (NE) 2,311 7.3 -6.9°
Maximum altitude 10:27:26 20° 89° (E) 1,705 5.4 -6.5°
Drops below altitude 10° 10:31:09 10° 137° (SE) 2,299 5.4 -6.2°
Sets 10:34:02 0° 154° (SSE) 3,220 6.0 -5.9°
